Search for airport 
image banner adimage banner ad
image banner ad

SVCG - Carbones Del Guasare

Located in Zulia, Venezuela

ICAO - SVCG, IATA - CUV

Data provided by Airmate  

General information

Coordinates: N11°0'29" W72°16'26"
Elevation is 99 feet MSL.
 
View others Airports in Zulia

Operational data

Open for public use
Current time UTC:
Current local time:
Weather at : SVMC - Maracaibo / La Chinita Intl ( 78 km )
TAF: TAF SVMC 262200Z 2618/2718 17005KT 9999 BKN016 TX33/2619Z TN25/2608Z BECMG 2618/2622 07003KT 9999 BKN016
View NOTAMs / SUP AIP / TFR affecting this airport [VIEW]
Communications frequencies: [VIEW]

Runways:

RWY identifierQFULength (ft)Width (ft)SurfaceLDA (ft)
1093°345070ASP
28273°345070ASP

Airport contact information

Address: Zulia Venezuela

Satellite view of SVCG